Location: Burland Observatory
(39.4088°N, 105.4217°W)
Time: 07:43:07
(UTC-06:00)

ISS - Visible Passes

Search period start: 20 October 2019 00:00
Search period end: 30 October 2019 00:00
Orbit: 411 x 421 km, 51.6° (Epoch: 20 October)

Date Brightness Start Highest point End Pass type
(mag) Time Alt. Az. Time Alt. Az. Time Alt. Az.
22 Oct -1.0 06:32:46 10° S 06:35:16 20° SE 06:37:46 10° E visible
23 Oct -0.5 05:45:54 10° SE 05:46:52 11° SE 05:47:50 10° ESE visible
24 Oct -3.2 06:31:16 10° SW 06:34:34 59° SE 06:37:52 10° ENE visible
25 Oct -2.1 05:44:14 19° S 05:46:02 31° SE 05:49:03 10° ENE visible
26 Oct -0.9 04:58:24 16° ESE 04:58:24 16° ESE 04:59:54 10° E visible
26 Oct -3.4 06:31:20 14° WSW 06:34:01 47° NNW 06:37:17 10° NE visible
27 Oct -3.9 05:45:17 82° WNW 05:45:21 83° NW 05:48:43 10° NE visible
28 Oct -0.9 04:59:04 17° ENE 04:59:04 17° ENE 05:00:01 10° ENE visible
28 Oct -2.3 06:31:59 16° WNW 06:33:39 22° NNW 06:36:22 10° NNE visible
29 Oct -2.4 05:45:37 28° N 05:45:37 28° N 05:47:55 10° NE visible
